| time (UTC) | temp F | wind direction | speed knots | gust knots | rain 1hr in | rain 24hr in | rain mn in | humidity % | barometer mb |
| 20260507060609 | 49 | 97 | 0.0 | 1.7 | 0.00 | 0.00 | 0.00 | 37 | 1012.4 |
| 20260507055524 | 50 | 131 | 0.9 | 2.6 | 0.00 | 0.00 | 0.00 | 37 | 1012.3 |
| 20260507054032 | 48 | 88 | 1.7 | 3.5 | 0.00 | 0.00 | 0.00 | 37 | 1012.2 |
| 20260507052859 | 47 | 73 | 1.7 | 3.5 | 0.00 | 0.00 | 0.00 | 39 | 1012.2 |
| 20260507051359 | 47 | 97 | 0.9 | 2.6 | 0.00 | 0.00 | 0.00 | 40 | 1012.2 |
| 20260507045934 | 46 | 88 | 1.7 | 3.5 | 0.00 | 0.00 | 0.00 | 41 | 1012.2 |
| 20260507044529 | 44 | 71 | 1.7 | 5.2 | 0.00 | 0.00 | 0.00 | 42 | 1012.2 |
| 20260507043912 | 44 | 23 | 1.7 | 3.5 | 0.00 | 0.00 | 0.00 | 43 | 1012.1 |
| 20260507042806 | 43 | 359 | 0.9 | 2.6 | 0.00 | 0.00 | 0.00 | 45 | 1012.2 |
| 20260507042019 | 42 | 359 | 1.7 | 3.5 | 0.00 | 0.00 | 0.00 | 46 | 1012.2 |
| 20260507041359 | 41 | 16 | 1.7 | 3.5 | 0.00 | 0.00 | 0.00 | 48 | 1012.1 |
| 20260507040134 | 40 | 18 | 1.7 | 4.3 | 0.00 | 0.00 | 0.00 | 51 | 1012.1 |
| 20260507034719 | 39 | 339 | 1.7 | 3.5 | 0.00 | 0.00 | 0.00 | 53 | 1012.0 |
| 20260507033804 | 38 | 340 | 1.7 | 2.6 | 0.00 | 0.00 | 0.00 | 54 | 1012.0 |
| 20260507032649 | 38 | 321 | 1.7 | 2.6 | 0.00 | 0.00 | 0.00 | 54 | 1011.9 |
| 20260507031619 | 37 | 340 | 3.5 | 5.2 | 0.00 | 0.00 | 0.00 | 55 | 1011.8 |
| 20260507030219 | 37 | 333 | 2.6 | 4.3 | 0.00 | 0.00 | 0.00 | 55 | 1011.7 |
| 20260507025109 | 37 | 329 | 2.6 | 3.5 | 0.00 | 0.00 | 0.00 | 55 | 1011.6 |
| 20260507024206 | 37 | 344 | 2.6 | 4.3 | 0.00 | 0.00 | 0.00 | 55 | 1011.6 |
| 20260507023621 | 37 | 334 | 2.6 | 4.3 | 0.00 | 0.00 | 0.00 | 55 | 1011.6 |
| 20260507022851 | 37 | 334 | 1.7 | 3.5 | 0.00 | 0.00 | 0.00 | 55 | 1011.6 |
| 20260507021732 | 37 | 322 | 2.6 | 4.3 | 0.00 | 0.00 | 0.00 | 54 | 1011.7 |
| 20260507021104 | 37 | 322 | 1.7 | 2.6 | 0.00 | 0.00 | 0.00 | 55 | 1011.7 |
| 20260507020144 | 37 | 333 | 2.6 | 4.3 | 0.00 | 0.00 | 0.00 | 54 | 1011.7 |
| 20260507015136 | 37 | 309 | 1.7 | 2.6 | 0.00 | 0.00 | 0.00 | 54 | 1011.7 |
| 20260507013906 | 38 | 324 | 2.6 | 3.5 | 0.00 | 0.00 | 0.00 | 53 | 1011.6 |
| 20260507013229 | 38 | 319 | 1.7 | 3.5 | 0.00 | 0.00 | 0.00 | 53 | 1011.6 |
| 20260507012314 | 38 | 319 | 1.7 | 3.5 | 0.00 | 0.00 | 0.00 | 53 | 1011.6 |
| 20260507010834 | 38 | 314 | 1.7 | 2.6 | 0.00 | 0.00 | 0.00 | 52 | 1011.6 |
| 20260507005602 | 38 | 359 | 1.7 | 2.6 | 0.00 | 0.00 | 0.00 | 51 | 1011.6 |
| 20260507004434 | 39 | 321 | 1.7 | 3.5 | 0.00 | 0.00 | 0.00 | 50 | 1011.6 |
| 20260507003221 | 39 | 311 | 1.7 | 3.5 | 0.00 | 0.00 | 0.00 | 51 | 1011.5 |
| 20260507002351 | 39 | 309 | 1.7 | 3.5 | 0.00 | 0.00 | 0.00 | 50 | 1011.5 |
| 20260507001519 | 39 | 2 | 0.9 | 2.6 | 0.00 | 0.00 | 0.00 | 49 | 1011.4 |
| 20260507000322 | 40 | 323 | 2.6 | 4.3 | 0.00 | 0.00 | 0.00 | 49 | 1011.4 |
| 20260506234944 | 40 | 327 | 3.5 | 4.3 | 0.00 | 0.00 | 0.00 | 48 | 1011.4 |
| 20260506233909 | 40 | 325 | 0.9 | 4.3 | 0.00 | 0.00 | 0.00 | 48 | 1011.4 |
| 20260506232802 | 40 | 318 | 1.7 | 5.2 | 0.00 | 0.00 | 0.00 | 48 | 1011.3 |
| 20260506232239 | 40 | 333 | 2.6 | 4.3 | 0.00 | 0.00 | 0.00 | 48 | 1011.3 |
| 20260506231644 | 41 | 354 | 1.7 | 4.3 | 0.00 | 0.00 | 0.00 | 47 | 1011.3 |
| 20260506230719 | 41 | 336 | 2.6 | 4.3 | 0.00 | 0.00 | 0.00 | 47 | 1011.4 |
| 20260506225536 | 41 | 341 | 3.5 | 5.2 | 0.00 | 0.00 | 0.00 | 47 | 1011.3 |
| 20260506224409 | 41 | 324 | 2.6 | 4.3 | 0.00 | 0.00 | 0.00 | 50 | 1011.3 |
| 20260506223236 | 41 | 340 | 2.6 | 5.2 | 0.00 | 0.00 | 0.00 | 52 | 1011.3 |
| 20260506222334 | 41 | 332 | 2.6 | 6.1 | 0.00 | 0.00 | 0.00 | 54 | 1011.2 |
| 20260506221732 | 41 | 324 | 2.6 | 4.3 | 0.00 | 0.00 | 0.00 | 59 | 1011.2 |
| 20260506220249 | 41 | 321 | 1.7 | 3.5 | 0.00 | 0.00 | 0.00 | 66 | 1011.2 |
| 20260506215312 | 41 | 321 | 2.6 | 3.5 | 0.00 | 0.00 | 0.00 | 69 | 1011.1 |
| 20260506214336 | 41 | 326 | 1.7 | 2.6 | 0.00 | 0.00 | 0.00 | 73 | 1011.0 |
| 20260506213719 | 41 | 315 | 1.7 | 2.6 | 0.00 | 0.00 | 0.00 | 77 | 1011.0 |
| 20260506212622 | 41 | 326 | 1.7 | 1.7 | 0.00 | 0.00 | 0.00 | 77 | 1010.9 |
| 20260506211349 | 41 | 322 | 0.9 | 1.7 | 0.00 | 0.00 | 0.00 | 77 | 1010.9 |
| 20260506210349 | 41 | 309 | 1.7 | 2.6 | 0.00 | 0.00 | 0.00 | 79 | 1010.9 |
| 20260506205836 | 41 | 310 | 1.7 | 2.6 | 0.00 | 0.00 | 0.00 | 79 | 1010.8 |
| 20260506204921 | 41 | 317 | 0.9 | 1.7 | 0.00 | 0.00 | 0.00 | 78 | 1010.8 |
| 20260506204042 | 41 | 328 | 0.9 | 1.7 | 0.00 | 0.00 | 0.00 | 77 | 1010.8 |
| 20260506203519 | 42 | 324 | 0.9 | 0.9 | 0.00 | 0.00 | 0.00 | 75 | 1010.8 |
| 20260506202259 | 42 | 213 | 0.0 | 0.9 | 0.00 | 0.00 | 0.00 | 73 | 1010.8 |
| 20260506200834 | 43 | 201 | 1.7 | 1.7 | 0.00 | 0.00 | 0.00 | 76 | 1010.8 |
| 20260506195549 | 43 | 158 | 0.0 | 0.9 | 0.00 | 0.00 | 0.00 | 74 | 1010.8 |
| 20260506194412 | 44 | 178 | 0.9 | 1.7 | 0.00 | 0.00 | 0.00 | 68 | 1010.8 |
| 20260506193019 | 44 | 230 | 0.9 | 0.9 | 0.00 | 0.00 | 0.00 | 66 | 1010.6 |
| 20260506192019 | 44 | 192 | 0.9 | 1.7 | 0.00 | 0.00 | 0.00 | 65 | 1010.6 |
| 20260506190724 | 44 | 209 | 0.9 | 1.7 | 0.00 | 0.00 | 0.00 | 67 | 1010.6 |
| 20260506190119 | 45 | 193 | 0.9 | 1.7 | 0.00 | 0.00 | 0.00 | 63 | 1010.6 |
| 20260506185124 | 45 | 153 | 0.9 | 1.7 | 0.00 | 0.00 | 0.00 | 63 | 1010.6 |
| 20260506183719 | 45 | 208 | 0.0 | 0.9 | 0.00 | 0.00 | 0.00 | 64 | 1010.6 |
| 20260506182959 | 45 | 190 | 1.7 | 3.5 | 0.00 | 0.00 | 0.00 | 64 | 1010.6 |
| 20260506182202 | 46 | 167 | 1.7 | 3.5 | 0.00 | 0.00 | 0.00 | 62 | 1010.6 |
| 20260506180906 | 46 | 202 | 0.9 | 2.6 | 0.00 | 0.00 | 0.00 | 59 | 1010.5 |
| 20260506175714 | 46 | 195 | 3.5 | 6.1 | 0.00 | 0.00 | 0.00 | 61 | 1010.5 |
| 20260506175152 | 48 | 157 | 1.7 | 3.5 | 0.00 | 0.00 | 0.00 | 58 | 1010.5 |
| 20260506174152 | 48 | 215 | 1.7 | 5.2 | 0.00 | 0.00 | 0.00 | 47 | 1010.5 |
| 20260506173119 | 48 | 189 | 1.7 | 4.3 | 0.00 | 0.00 | 0.00 | 47 | 1010.5 |
| 20260506172119 | 49 | 195 | 3.5 | 6.1 | 0.00 | 0.00 | 0.00 | 46 | 1010.5 |
| 20260506170709 | 49 | 218 | 3.5 | 7.0 | 0.00 | 0.00 | 0.00 | 45 | 1010.5 |
| 20260506165619 | 49 | 232 | 2.6 | 5.2 | 0.00 | 0.00 | 0.00 | 46 | 1010.4 |
| 20260506164629 | 49 | 215 | 4.3 | 7.0 | 0.00 | 0.00 | 0.00 | 45 | 1010.4 |
| 20260506163929 | 49 | 197 | 4.3 | 9.6 | 0.00 | 0.00 | 0.00 | 47 | 1010.4 |
| 20260506162522 | 49 | 202 | 2.6 | 6.1 | 0.00 | 0.00 | 0.00 | 48 | 1010.3 |
| 20260506161449 | 49 | 232 | 2.6 | 5.2 | 0.00 | 0.00 | 0.00 | 48 | 1010.4 |
| 20260506160904 | 49 | 209 | 3.5 | 7.8 | 0.00 | 0.00 | 0.00 | 47 | 1010.4 |
| 20260506160232 | 49 | 205 | 7.8 | 10.4 | 0.00 | 0.00 | 0.00 | 45 | 1010.3 |
| 20260506155442 | 50 | 198 | 3.5 | 7.8 | 0.00 | 0.00 | 0.00 | 44 | 1010.3 |
| 20260506154744 | 50 | 228 | 4.3 | 7.8 | 0.00 | 0.00 | 0.00 | 43 | 1010.4 |
| 20260506154154 | 50 | 237 | 3.5 | 9.6 | 0.00 | 0.00 | 0.00 | 42 | 1010.4 |
| 20260506153534 | 50 | 212 | 4.3 | 8.7 | 0.00 | 0.00 | 0.00 | 43 | 1010.4 |
| 20260506152139 | 48 | 190 | 5.2 | 10.4 | 0.00 | 0.00 | 0.00 | 49 | 1010.3 |
| 20260506151306 | 48 | 212 | 5.2 | 7.8 | 0.00 | 0.00 | 0.00 | 50 | 1010.4 |
| 20260506150602 | 48 | 198 | 5.2 | 10.4 | 0.00 | 0.00 | 0.00 | 50 | 1010.3 |
| 20260506145305 | 48 | 206 | 6.1 | 10.4 | 0.00 | 0.00 | 0.00 | 49 | 1010.6 |
| 20260506144519 | 48 | 200 | 7.0 | 12.2 | 0.00 | 0.00 | 0.00 | 49 | 1010.6 |
| 20260506143119 | 49 | 214 | 6.1 | 9.6 | 0.00 | 0.00 | 0.00 | 46 | 1010.6 |
| 20260506142239 | 49 | 213 | 5.2 | 7.8 | 0.00 | 0.00 | 0.00 | 44 | 1010.6 |
| 20260506140759 | 50 | 206 | 6.1 | 13.0 | 0.00 | 0.00 | 0.00 | 43 | 1010.4 |
| 20260506135804 | 50 | 203 | 6.1 | 10.4 | 0.00 | 0.00 | 0.00 | 39 | 1010.5 |
| 20260506134944 | 50 | 240 | 4.3 | 9.6 | 0.00 | 0.00 | 0.00 | 39 | 1010.5 |
| 20260506134219 | 50 | 213 | 6.1 | 13.0 | 0.00 | 0.00 | 0.00 | 40 | 1010.5 |
| 20260506133329 | 51 | 231 | 5.2 | 10.4 | 0.00 | 0.00 | 0.00 | 41 | 1010.6 |
| 20260506132734 | 50 | 198 | 6.1 | 13.0 | 0.00 | 0.00 | 0.00 | 42 | 1010.5 |
| 20260506132221 | 50 | 198 | 6.1 | 11.3 | 0.00 | 0.00 | 0.00 | 41 | 1010.4 |
| 20260506131019 | 50 | 203 | 7.8 | 16.5 | 0.00 | 0.00 | 0.00 | 40 | 1010.3 |
| 20260506125802 | 50 | 207 | 6.1 | 12.2 | 0.00 | 0.00 | 0.00 | 41 | 1010.3 |
| 20260506124654 | 49 | 197 | 8.7 | 15.6 | 0.00 | 0.00 | 0.00 | 45 | 1010.4 |
| 20260506123619 | 49 | 193 | 7.0 | 15.6 | 0.00 | 0.00 | 0.00 | 47 | 1010.4 |
| 20260506123042 | 50 | 190 | 5.2 | 14.8 | 0.00 | 0.00 | 0.00 | 47 | 1010.3 |
| 20260506121642 | 49 | 196 | 7.8 | 14.8 | 0.00 | 0.00 | 0.00 | 49 | 1010.4 |
| 20260506120659 | 48 | 198 | 5.2 | 11.3 | 0.00 | 0.00 | 0.00 | 54 | 1010.3 |
| 20260506115232 | 46 | 212 | 6.1 | 12.2 | 0.00 | 0.00 | 0.00 | 59 | 1010.2 |
| 20260506114412 | 46 | 210 | 7.0 | 13.9 | 0.00 | 0.00 | 0.00 | 59 | 1010.4 |
| 20260506113539 | 46 | 215 | 6.1 | 13.9 | 0.00 | 0.00 | 0.00 | 59 | 1010.3 |
| 20260506112542 | 46 | 195 | 5.2 | 9.6 | 0.00 | 0.00 | 0.00 | 60 | 1010.3 |
| 20260506111536 | 46 | 198 | 6.1 | 13.0 | 0.00 | 0.00 | 0.00 | 59 | 1010.2 |
| 20260506110409 | 47 | 193 | 4.3 | 11.3 | 0.00 | 0.00 | 0.00 | 57 | 1010.3 |
| 20260506104951 | 48 | 200 | 6.1 | 11.3 | 0.00 | 0.00 | 0.00 | 53 | 1010.3 |
| 20260506103959 | 48 | 192 | 5.2 | 13.0 | 0.00 | 0.00 | 0.00 | 55 | 1010.2 |
| 20260506103349 | 48 | 199 | 3.5 | 9.6 | 0.00 | 0.00 | 0.00 | 55 | 1010.1 |
| 20260506102644 | 49 | 191 | 2.6 | 7.0 | 0.00 | 0.00 | 0.00 | 52 | 1010.2 |
| 20260506101219 | 49 | 123 | 1.7 | 3.5 | 0.00 | 0.00 | 0.00 | 47 | 1010.3 |
| 20260506100429 | 50 | 288 | 2.6 | 5.2 | 0.00 | 0.00 | 0.00 | 31 | 1010.2 |
| 20260506095036 | 49 | 332 | 4.3 | 8.7 | 0.00 | 0.00 | 0.00 | 34 | 1010.0 |
| 20260506094532 | 49 | 342 | 7.0 | 11.3 | 0.00 | 0.00 | 0.00 | 34 | 1010.0 |
| 20260506093342 | 50 | 327 | 5.2 | 8.7 | 0.00 | 0.00 | 0.00 | 33 | 1010.0 |
| 20260506092349 | 49 | 301 | 2.6 | 5.2 | 0.00 | 0.00 | 0.00 | 35 | 1009.9 |
| 20260506091124 | 49 | 318 | 6.1 | 10.4 | 0.00 | 0.00 | 0.00 | 35 | 1009.7 |
| 20260506085636 | 48 | 316 | 7.0 | 13.9 | 0.00 | 0.00 | 0.00 | 35 | 1009.7 |
| 20260506084206 | 49 | 324 | 2.6 | 7.0 | 0.00 | 0.00 | 0.00 | 35 | 1009.7 |
| 20260506083236 | 47 | 304 | 3.5 | 7.8 | 0.00 | 0.00 | 0.00 | 37 | 1009.7 |
| 20260506081749 | 48 | 328 | 5.2 | 8.7 | 0.00 | 0.00 | 0.00 | 39 | 1009.6 |
| 20260506080449 | 48 | 351 | 5.2 | 10.4 | 0.00 | 0.00 | 0.00 | 39 | 1009.6 |
| 20260506073224 | 48 | 265 | 3.5 | 7.0 | 0.00 | 0.00 | 0.00 | 42 | 1009.4 |
| 20260506072312 | 48 | 315 | 5.2 | 8.7 | 0.00 | 0.00 | 0.00 | 43 | 1009.3 |
| 20260506070954 | 46 | 313 | 4.3 | 8.7 | 0.00 | 0.00 | 0.00 | 46 | 1009.2 |
| 20260506061919 | 45 | 291 | 2.6 | 4.3 | 0.00 | 0.00 | 0.00 | 54 | 1009.0 |